Regional Weather Roundup
Issued by NWS

Home | Current Version | Previous Version | Text Only | Print | Product List | Glossary Off
Versions: 1 2 3 4 5 6 7 8 9 10 11 12 13 14 15 16 17 18 19 20 21 22 23 24 25 26 27 28 29 30 31 32 33 34 35 36 37 38 39 40 41 42 43 44 45 46 47 48 49 50

000
ASUS43 KOAX 312110
RWRNE

WEATHER ROUNDUP FOR NEBRASKA
NATIONAL WEATHER SERVICE OMAHA NE
400 PM CDT FRI OCT 31 2014

NOTES: SATELLITE DATA IS BEING USED TO AUGMENT CLOUD COVER ABOVE
       12000 FEET.
       "FAIR" INDICATES FEW OR NO CLOUDS BELOW 12,000 FEET WITH NO
       SIGNIFICANT WEATHER AND/OR OBSTRUCTIONS TO VISIBILITY.

  * THESE STATIONS DO NOT REPORT WEATHER SUCH AS RAIN...SNOW OR FOG.

NEZ001>004-019>022-054>056-312200-
NEBRASKA PANHANDLE

CITY           SKY/WX    TMP DP  RH WIND       PRES   REMARKS
SCOTTSBLUFF    MOSUNNY   57  32  38 S21G33    30.15F
ALLIANCE       SUNNY     47  29  49 S26G35    30.20F
CHADRON        SUNNY     51  29  42 S21G30    30.14F
KIMBALL        MOSUNNY   55  28  36 S23G30    30.15F
SIDNEY         SUNNY     51  29  42 S25G33    30.22F
$$

NEZ057>060-069>072-079>082-312200-
SOUTHWEST NEBRASKA

CITY           SKY/WX    TMP DP  RH WIND       PRES   REMARKS
NORTH PLATTE   SUNNY     47  14  26 S16       30.35F
IMPERIAL       SUNNY     48  22  35 SE18G26   30.31F
LEXINGTON      SUNNY     44  13  28 SE10      30.41F
MCCOOK         SUNNY     47  20  34 SE14      30.38F
OGALLALA       SUNNY     49  24  37 SE14      30.30F
$$

NEZ005>010-023>029-035>040-094-312200-
NORTH CENTRAL NEBRASKA

CITY           SKY/WX    TMP DP  RH WIND       PRES   REMARKS
VALENTINE      SUNNY     46  10  23 S20G28    30.32F
AINSWORTH      SUNNY     43  12  29 SE17G23   30.35F
BROKEN BOW     SUNNY     44  16  32 S13       30.39F
O`NEILL        SUNNY     43  15  32 SE8       30.43F
ORD            SUNNY     42  12  29 SE10      30.43F
THEDFORD       SUNNY     48  18  29 S14G20    30.34F
$$

NEZ041-046>049-061>064-073>077-083>087-312200-
SOUTH CENTRAL NEBRASKA

CITY           SKY/WX    TMP DP  RH WIND       PRES   REMARKS
GRAND ISLAND   SUNNY     43  14  31 SE5       30.46F
AURORA         SUNNY     42  10  26 E5        30.46F
HASTINGS       SUNNY     43  14  31 CALM      30.45F
HEBRON         SUNNY     45   7  21 NE6       30.47F
HOLDREGE       SUNNY     44  12  27 CALM      30.42F
KEARNEY *      SUNNY     43  14  31 E9        30.44F
YORK           SUNNY     41  16  36 E7        30.47F
$$

NEZ011>018-030>034-042>045-312200-
NORTHEAST NEBRASKA

CITY           SKY/WX    TMP DP  RH WIND       PRES   REMARKS
NORFOLK        SUNNY     42  14  32 SE7       30.46F
ALBION         SUNNY     42  11  29 CALM      30.46F
BLAIR          SUNNY     42  16  34 NE3       30.47F
FREMONT        SUNNY     44  17  34 NE6       30.49F
TEKAMAH        SUNNY     45  18  34 N7        30.49F
WAYNE          SUNNY     42  15  33 CALM      30.48F
$$

NEZ050>053-065>068-078-088>093-312200-
SOUTHEAST NEBRASKA

CITY           SKY/WX    TMP DP  RH WIND       PRES   REMARKS
LINCOLN        SUNNY     45  16  31 N6        30.51F
OMAHA EPPLEY   MOSUNNY   44  16  32 N8        30.50F
BEATRICE       SUNNY     44  16  33 N7        30.48F
FALLS CITY     SUNNY     46  16  30 N9        30.47F
NEBRASKA CITY  SUNNY     43  10  26 N8        30.48S
PLATTSMOUTH    SUNNY     43  13  30 NE6       30.48F
$$

NEZ044-045-051>053-067-312200-
OMAHA AREA

CITY           SKY/WX    TMP DP  RH WIND       PRES   REMARKS
OMAHA EPPLEY   MOSUNNY   44  16  32 N8        30.50F
BLAIR          SUNNY     42  16  34 NE3       30.47F
FREMONT        SUNNY     44  17  34 NE6       30.49F
MILLARD        SUNNY     43  18  36 N3        30.49F
OFFUTT AFB     SUNNY     44  17  33 NW6       30.48F
PLATTSMOUTH    SUNNY     43  13  30 NE6       30.48F
WAHOO          FAIR      43  11  27 NE5       30.49F
$$



USA.gov is the U.S. government's official web portal to all federal, state and local government web resources and services.